Flag for Iran Weather past 2 weeks in Rafsanjan, Iran

Now
45 °F

Passing clouds.


Feels Like: 41 °F
Forecast: 27 / 60 °F
Wind: 7 mph from North

Location: Kerman Airport

Current Time: Dec 29, 2014 at 7:34:48 PM

Latest Report: Dec 29, 2014 at 6:30 PM


Visibility: N/A

Pressure: 30.18 "Hg

Humidity: 49%

Dew point: 27 °F

Location of RafsanjanLocation

Historic Weather in Rafsanjan — Graph

°F

Rafsanjan temperature yesterday

Maximum temperature yesterday: 64 °F (at 2:00 PM)
Minimum temperature yesterday: 21 °F (at 5:30 AM)
Average temperature yesterday: 45 °F

Past Weeks' High & Low Weather Summary

 TemperatureHumidityPressure
High72 °F (Dec 15, 12:30 PM)100% (Dec 18, 2:30 AM)30.42 "Hg (Dec 18, 2:30 AM)
Low18 °F (Dec 16, 7:00 AM)0% (Dec 15, 4:30 PM)29.92 "Hg (Dec 23, 3:00 PM)
Average44 °F32%30.21 "Hg
* Reported Dec 14 6:30 PM — Dec 29 6:30 PM, Rafsanjan, Weather by CustomWeather, © 2014

Note: Actual official high and low records may vary slightly from our data, if they occured in-between our weather recording intervals... More about our weather records

Advertising

Rafsanjan weather history for previous 24 hours

 ConditionsComfort  
Time TempWeatherWind HumidityBarometerVisibility
6:30 PM
Dec 29
45 °FPassing clouds.7 mph49%30.18 "HgN/A
5:30 PM48 °FPassing clouds.7 mph40%30.15 "HgN/A
4:30 PM54 °FPassing clouds.9 mph35%30.15 "HgN/A
4:00 PM54 °FPassing clouds.9 mph38%30.12 "HgN/A
3:30 PM57 °FPassing clouds.9 mph33%30.12 "HgN/A
3:00 PM55 °FPassing clouds.9 mph36%30.12 "HgN/A
2:30 PM55 °FScattered clouds.9 mph36%30.12 "HgN/A
1:30 PM55 °FPartly sunny.14 mph36%30.15 "HgN/A
12:30 PM52 °FPartly sunny.5 mph28%30.18 "HgN/A
11:30 AM46 °FPartly sunny.5 mph25%30.21 "HgN/A
10:30 AM46 °FPartly sunny.No wind25%30.21 "HgN/A
9:30 AM43 °FPartly sunny.5 mph26%30.21 "HgN/A
9:00 AM41 °FPartly sunny.No wind26%30.24 "HgN/A
8:30 AM36 °FPartly sunny.No wind32%30.21 "HgN/A
8:00 AM36 °FPartly sunny.No wind32%30.21 "HgN/A
7:30 AM32 °FSunny.5 mph34%30.21 "Hg10 mi
7:00 AM30 °FClear.5 mph40%30.18 "Hg10 mi
6:30 AM27 °FClear.5 mph39%30.18 "Hg10 mi
5:30 AM27 °FClear.7 mph33%30.18 "Hg10 mi
4:30 AM27 °FClear.7 mph33%30.18 "Hg10 mi
3:30 AM27 °FClear.No wind33%30.18 "Hg10 mi
2:30 AM28 °FClear.5 mph31%30.21 "Hg10 mi
1:30 AM28 °FClear.5 mph31%30.21 "Hg10 mi
12:30 AM30 °FClear.No wind29%30.21 "Hg10 mi
11:30 PM
Dec 28
32 °FClear.5 mph37%30.21 "Hg10 mi
10:30 PM34 °FClear.7 mph35%30.24 "Hg10 mi
9:30 PM37 °FClear.9 mph23%30.24 "Hg10 mi
8:30 PM37 °FClear.7 mph23%30.24 "Hg10 mi
7:30 PM46 °FClear.No wind23%30.21 "Hg10 mi
Weather by CustomWeather, © 2014

See weather overviewHow to use our weather pages